"Pseudo-MPEC" for C2T3952

Created 2020 May 26 11:07:03 UT using Find_Orb

Click here for an explanation of pseudo-MPECs

 
 Astrometry: 
     C2T3952  C2020 05 16.20428 11 32 41.69 +39 19 54.0    ~5G5q 21.5 GVNEOCPG96
     C2T3952  C2020 05 16.20948 11 32 41.82 +39 19 51.6    ~5G5q 22.2 GVNEOCPG96
     C2T3952  C2020 05 16.21469 11 32 41.85 +39 19 49.3    ~5G5q 22.5 GVNEOCPG96
     C2T3952  C2020 05 16.21989 11 32 41.96 +39 19 47.4    ~5G5q 21.8 GVNEOCPG96
     C2T3952  C2020 05 16.31478 11 32 43.92 +39 19 05.3    ~5G87 23.2 GVNEOCPV06
     C2T3952  C2020 05 16.31874 11 32 43.96 +39 19 03.2    ~5G87 22.2 GVNEOCPV06
     C2T3952  C2020 05 16.32270 11 32 44.00 +39 19 01.6    ~5G87 22.2 GVNEOCPV06
     C2T3952  C2020 05 16.32666 11 32 44.10 +39 19 00.4    ~5G87 22.5 GVNEOCPV06
     C2T3952  C2020 05 17.20538 11 33 03.89 +39 12 36.0    ~5H5q 23.3 GVNEOCPV06
     C2T3952  C2020 05 17.21726 11 33 04.14 +39 12 30.2    ~5H5q 23.4 GVNEOCPV06
     C2T3952  C2020 05 17.22360 11 33 04.28 +39 12 27.0    ~5H5q 23.3 GVNEOCPV06
     C2T3952  C2020 05 17.22993 11 33 04.32 +39 12 23.9    ~5H5q       VNEOCPV06

Station data:
(G96) Mt. Lemmon Survey  (N32.442754 W110.788720)  US/Arizona.  Observers T.
   A. Pruyne, B. M. Africano, E. J. Christensen, G. A. Farneth, D. C. Fuls,
   A. R. Gibbs, A. D. Grauer, H. Gröller, J. A. Johnson, R. A. Kowalski, S.
   M. Larson, G. J. Leonard, D. Rankin, R. L. Seaman, F. C. Shelly. 1.5-m
   reflector + 10K CCD.
(V06) Catalina Sky Survey-Kuiper  (N32.416847 W110.732550)  US/Arizona.
   Observers T. A. Pruyne, B. M. Africano, E. J. Christensen, G. A. Farneth,
   D. C. Fuls, A. R. Gibbs, A. D. Grauer, H. Gröller, J. A. Johnson, R. A.
   Kowalski, S. M. Larson, G. J. Leonard, D. Rankin, R. L. Seaman, F. C.
   Shelly. 1.55-m reflector + CCD.

Orbital elements:  C2T3952
   Perihelion 2018 Dec 14.447058 +/- 270 TT = 10:43:45 (JD 2458466.947058)
Epoch 2020 May 17.0 TT = JDT 2458986.5   Earth MOID: 0.8868   AutoNEOCP
M 168.56237673 +/- 110              (J2000 ecliptic)
n   0.32443734 +/- 0.148            Peri.  240.36920 +/- 80
a   2.09756530 +/- 0.638            Node   138.82687 +/- 9
e   0.1394535 +/- 0.135             Incl.   35.90377 +/- 3.8
P   3.04                   H 18.3   G  0.15   U 11.5  SR
q 1.80505228 +/- 0.604    Q 2.39007832 +/- 1.64
From 12 observations 2020 May 16-17 (24.6 hr); mean residual 0".36
Residuals in arcseconds: 
200516 G96  .25+  .14-    200516 V06  .44+  .16+    200517 V06  .28+  .56+    
200516 G96  .58+  .25-    200516 V06  .05-  .17-    200517 V06  .26+  .11+    
200516 G96  .26-  .26-    200516 V06  .54-  .01+    200517 V06  .32+  .23-    
200516 G96  .17-  .12+    200516 V06  .33-  .58+    200517 V06  .79-  .48-    

Ephemerides (geocentric):
Date (UTC) HH   RA              Dec         delta   r     elong  mag " sig PA
---- -- -- --  -------------   -----------  ------ ------ -----  --- ---- ---
2020 05 26 11  11 37 42.337   +37 57 23.93  2.1213 2.3877  92.3 23.0  235  37
2020 05 26 12  11 37 43.873   +37 57 01.94  2.1217 2.3877  92.3 23.0  237  37
2020 05 26 13  11 37 45.411   +37 56 39.93  2.1222 2.3877  92.3 23.0  239  37
2020 05 26 14  11 37 46.952   +37 56 17.90  2.1227 2.3877  92.2 23.0  241  37
2020 05 26 15  11 37 48.496   +37 55 55.86  2.1231 2.3877  92.2 23.0  243  37
2020 05 26 16  11 37 50.041   +37 55 33.81  2.1236 2.3877  92.2 23.0  245  37
2020 05 26 17  11 37 51.589   +37 55 11.75  2.1240 2.3877  92.2 23.0  247  37
2020 05 26 18  11 37 53.140   +37 54 49.67  2.1245 2.3877  92.1 23.0  249  37
2020 05 26 19  11 37 54.693   +37 54 27.58  2.1250 2.3877  92.1 23.0  251  37
2020 05 26 20  11 37 56.248   +37 54 05.47  2.1254 2.3877  92.1 23.0  253  37
2020 05 26 21  11 37 57.805   +37 53 43.35  2.1259 2.3878  92.1 23.0  255  37
2020 05 26 22  11 37 59.365   +37 53 21.22  2.1264 2.3878  92.0 23.0  257  37
2020 05 26 23  11 38 00.928   +37 52 59.07  2.1268 2.3878  92.0 23.0  259  37
2020 05 27 00  11 38 02.493   +37 52 36.91  2.1273 2.3878  92.0 23.0  261  37
2020 05 27 01  11 38 04.060   +37 52 14.74  2.1278 2.3878  92.0 23.0  264  37
2020 05 27 02  11 38 05.629   +37 51 52.55  2.1282 2.3878  91.9 23.0  266  37
2020 05 27 03  11 38 07.201   +37 51 30.35  2.1287 2.3878  91.9 23.0  268  37
2020 05 27 04  11 38 08.775   +37 51 08.14  2.1291 2.3878  91.9 23.0  270  37
2020 05 27 05  11 38 10.352   +37 50 45.91  2.1296 2.3878  91.9 23.0  272  37
2020 05 27 06  11 38 11.931   +37 50 23.67  2.1301 2.3878  91.8 23.0  274  37
2020 05 27 07  11 38 13.512   +37 50 01.42  2.1305 2.3878  91.8 23.0  276  37
2020 05 27 08  11 38 15.096   +37 49 39.15  2.1310 2.3878  91.8 23.0  279  37
2020 05 27 09  11 38 16.682   +37 49 16.87  2.1315 2.3878  91.7 23.0  281  37
2020 05 27 10  11 38 18.271   +37 48 54.57  2.1319 2.3878  91.7 23.0  283  37
2020 05 27 11  11 38 19.861   +37 48 32.27  2.1324 2.3879  91.7 23.0  285  37
2020 05 27 12  11 38 21.455   +37 48 09.95  2.1328 2.3879  91.7 23.0  287  37
2020 05 27 13  11 38 23.050   +37 47 47.61  2.1333 2.3879  91.6 23.0  290  37
2020 05 27 14  11 38 24.648   +37 47 25.27  2.1338 2.3879  91.6 23.0  292  37
2020 05 27 15  11 38 26.248   +37 47 02.91  2.1342 2.3879  91.6 23.0  294  37
2020 05 27 16  11 38 27.851   +37 46 40.53  2.1347 2.3879  91.6 23.0  296  37
2020 05 27 17  11 38 29.456   +37 46 18.15  2.1352 2.3879  91.5 23.0  299  37
2020 05 27 18  11 38 31.063   +37 45 55.75  2.1356 2.3879  91.5 23.0  301  37
2020 05 27 19  11 38 32.673   +37 45 33.33  2.1361 2.3879  91.5 23.0  303  37
2020 05 27 20  11 38 34.285   +37 45 10.91  2.1365 2.3879  91.5 23.0  305  37
2020 05 27 21  11 38 35.899   +37 44 48.47  2.1370 2.3879  91.4 23.0  308  37
2020 05 27 22  11 38 37.516   +37 44 26.02  2.1375 2.3879  91.4 23.0  310  37
2020 05 27 23  11 38 39.135   +37 44 03.55  2.1379 2.3879  91.4 23.0  312  37
2020 05 28 00  11 38 40.756   +37 43 41.07  2.1384 2.3880  91.4 23.0  315  37
2020 05 28 01  11 38 42.380   +37 43 18.58  2.1389 2.3880  91.3 23.0  317  37
2020 05 28 02  11 38 44.006   +37 42 56.08  2.1393 2.3880  91.3 23.0  319  37
2020 05 28 03  11 38 45.634   +37 42 33.56  2.1398 2.3880  91.3 23.0  322  37
2020 05 28 04  11 38 47.265   +37 42 11.03  2.1402 2.3880  91.3 23.0  324  37
2020 05 28 05  11 38 48.897   +37 41 48.48  2.1407 2.3880  91.2 23.0  326  37
2020 05 28 06  11 38 50.533   +37 41 25.93  2.1412 2.3880  91.2 23.0  329  37
2020 05 28 07  11 38 52.170   +37 41 03.36  2.1416 2.3880  91.2 23.0  331  37
2020 05 28 08  11 38 53.810   +37 40 40.78  2.1421 2.3880  91.1 23.0  333  37
2020 05 28 09  11 38 55.453   +37 40 18.18  2.1425 2.3880  91.1 23.0  336  37
2020 05 28 10  11 38 57.097   +37 39 55.57  2.1430 2.3880  91.1 23.0  338  37